Overview Statistics Trail Chart Weather Telemetry Raw packets
 

This is the latest recevied weather packets stored in our database for station/object M0JUI-1. If no packets are shown the sender has not sent any weather packets the latest 10 day(s).

<< 52 53 54 55 56 57 58 >>
Time Temp. Humidity Pressure Rain* Wind** Luminosity Snow
1788289506 16.67° C 1% 1018.8 hPa 0 mm - 0 W/m² -
1788289197 16.67° C 1% 1018.9 hPa 0 mm - 0 W/m² -
1788288898 16.67° C 1% 1019 hPa 0 mm - 0 W/m² -
1788288598 16.67° C 1% 1019 hPa 0 mm - 2 W/m² -
1788288297 17.22° C 1% 1018.9 hPa 0 mm - 3 W/m² -
1788287997 17.22° C 1% 1018.9 hPa 0 mm - 6 W/m² -
1788287697 17.22° C 1% 1019 hPa 0 mm - 10 W/m² -
1788287397 17.22° C 1% 1019 hPa 0 mm - 12 W/m² -
1788287098 17.22° C 1% 1019 hPa 0 mm - 15 W/m² -
1788286797 17.78° C 1% 1019 hPa 0 mm - 18 W/m² -
1788286497 17.78° C 1% 1018.6 hPa 0 mm - 23 W/m² -
1788286197 17.78° C 1% 1019 hPa 0 mm - 30 W/m² -
1788285897 17.78° C 1% 1018.8 hPa 0 mm - 35 W/m² -
1788285604 17.78° C 1% 1018.7 hPa 0 mm - 31 W/m² -
1788285298 17.78° C 1% 1018.9 hPa 0 mm - 39 W/m² -
1788284997 17.78° C 1% 1018.8 hPa 0 mm - 51 W/m² -
1788284697 18.33° C 1% 1018.9 hPa 0 mm - 59 W/m² -
1788284397 18.33° C 1% 1018.8 hPa 0 mm - 69 W/m² -
1788284098 18.33° C 1% 1018.9 hPa 0 mm - 73 W/m² -
1788283797 18.33° C 1% 1018.9 hPa 0 mm - 66 W/m² -
1788283498 18.33° C 1% 1018.9 hPa 0 mm - 72 W/m² -
1788283197 18.33° C 1% 1018.8 hPa 0 mm - 85 W/m² -
1788282897 18.33° C 1% 1018.7 hPa 0 mm - 74 W/m² -
1788282597 18.33° C 1% 1018.6 hPa 0 mm - 64 W/m² -
1788282298 18.33° C 1% 1018.7 hPa 0 mm - 57 W/m² -

* Rain latest hour (hover to see other rain measurements)
** Current wind speed in m/s (hover to see current wind gust speed)